User: anonymous   Login
Location: Puketoi
(40.5833°S, 176.0167°E)
Time: 21:29:21
(UTC+00:00)
Language:

CZ-6A DEB - Orbit

View from above orbital plane
View from above orbital plane
View from above satellite
View from above satellite

Ground track
Ground track

The orbit data is extracted from the following two-line orbital elements,

1 54616U 22151NS  24057.91049501  .00002065  00000-0  11998-2 0  9993
2 54616  98.8003  60.7346 0060028 214.4787 145.2482 14.08878218 65157
Epoch (UTC): 26 February 2024 21:51:06
Eccentricity: 0.0060028
inclination: 98.8003°
perigee height: 820 km
apogee height: 906 km
right ascension of ascending node: 60.7346°
argument of perigee: 214.4787°
revolutions per day: 14.08878218
mean anomaly at epoch: 145.2482°
orbit number at epoch: 6515

The dashed part of the orbit path shows where the satellite is in the earth's shadow,  

DLR